This is the latest recevied weather packets stored in our database for station/object K0WOI. If no packets are shown the sender has not sent any weather packets the latest 10 day(s).
| Time | Temp. | Humidity | Pressure | Rain* | Wind** | Luminosity | Snow |
|---|---|---|---|---|---|---|---|
| 1776971150 | 22.22° C | 79% | 1001.1 hPa | 0 mm | - | 168 W/m² | - |
| 1776970846 | 22.22° C | 79% | 1000.9 hPa | 0 mm | - | 147 W/m² | - |
| 1776970544 | 22.22° C | 80% | 1001.1 hPa | 0 mm | - | 73 W/m² | - |
| 1776970241 | 21.67° C | 79% | 1001.1 hPa | 0 mm | - | 92 W/m² | - |
| 1776969937 | 21.67° C | 81% | 1001 hPa | 0 mm | - | 104 W/m² | - |
| 1776969635 | 21.67° C | 80% | 1001.2 hPa | 0 mm | - | 98 W/m² | - |
| 1776969331 | 21.67° C | 80% | 1001.2 hPa | 0 mm | - | 107 W/m² | - |
| 1776969028 | 21.67° C | 81% | 1001.4 hPa | 0 mm | - | 88 W/m² | - |
| 1776968727 | 21.67° C | 81% | 1001.7 hPa | 0 mm | - | 95 W/m² | - |
| 1776968423 | 21.67° C | 81% | 1001.7 hPa | 0 mm | - | 90 W/m² | - |
| 1776968119 | 21.67° C | 81% | 1001.6 hPa | 0 mm | - | 72 W/m² | - |
| 1776967815 | 21.67° C | 81% | 1001.6 hPa | 0 mm | - | 93 W/m² | - |
| 1776967512 | 21.67° C | 81% | 1001.6 hPa | 0 mm | - | 73 W/m² | - |
| 1776967211 | 21.67° C | 82% | 1001.7 hPa | 0 mm | - | 129 W/m² | - |
| 1776966907 | 21.11° C | 82% | 1001.6 hPa | 0 mm | - | 116 W/m² | - |
| 1776966603 | 21.11° C | 83% | 1001.9 hPa | 0 mm | - | 51 W/m² | - |
| 1776966298 | 21.11° C | 83% | 1001.7 hPa | 0 mm | - | 43 W/m² | - |
| 1776965993 | 21.11° C | 83% | 1002 hPa | 0 mm | - | 52 W/m² | - |
| 1776965690 | 21.11° C | 83% | 1002.1 hPa | 0 mm | - | 85 W/m² | - |
| 1776965388 | 21.11° C | 83% | 1002 hPa | 0 mm | - | 92 W/m² | - |
| 1776965086 | 21.11° C | 83% | 1002.2 hPa | 0 mm | - | 89 W/m² | - |
| 1776964786 | 21.11° C | 84% | 1002.1 hPa | 0 mm | - | 130 W/m² | - |
| 1776964481 | 21.11° C | 84% | 1002.1 hPa | 0 mm | - | 121 W/m² | - |
| 1776964179 | 21.11° C | 84% | 1002.2 hPa | 0 mm | - | 129 W/m² | - |
| 1776963874 | 21.11° C | 84% | 1002.5 hPa | 0 mm | - | 93 W/m² | - |
* Rain latest hour (hover to see other rain measurements)
** Current wind speed in m/s (hover to see current wind gust speed)